Winslow, AZ

2:56 AM MST on September 22, 2017 (GMT -0700)
Winslow-Lindbergh Regional

Weather History for KINW - June, 2013

Change the Weather History Date:

Thursday, June 20, 2013

  Actual Average Record
Temperature  
Mean Temperature 75 °F 74 °F  
Max Temperature 95 °F 93 °F 108 °F (2016)
Min Temperature 54 °F 55 °F 41 °F (1973)
Degree Days  
Heating Degree Days 0 0  
Month to date heating degree days 0 8  
Since 1 July heating degree days 4188 4495  
Cooling Degree Days 10 9  
Month to date cooling degree days 231 133  
Year to date cooling degree days 287 200  
Growing Degree Days 24 (Base 50)    
Moisture  
Dew Point 13 °F    
Average Humidity 13    
Maximum Humidity 22    
Minimum Humidity 4    
Precipitation  
Precipitation 0.00 in 0.01 in 0.16 in (1958)
Month to date precipitation T 0.10  
Year to date precipitation 1.79 2.21  
Sea Level Pressure  
Sea Level Pressure 29.76 in    
Wind  
Wind Speed 12 mph (South)    
Max Wind Speed 28 mph    
Max Gust Speed 33 mph    
Visibility 10 miles    
Events      
T = Trace of Precipitation, MM = Missing Value Source: NWS Daily Summary

Daily Weather History Graph

Daily Weather History Graph

Search for Another Location

Airport or City:

Trip Planner

Search our weather history database for the weather conditions in past years. The results will help you decide how hot, cold, wet, or windy it might be!

Date:

Astronomy

Jun. 20, 2013 Rise Set
Actual Time 5:09 AM MST 7:40 PM MST
Civil Twilight 4:39 AM MST 8:09 PM MST
Nautical Twilight 4:02 AM MST 8:46 PM MST
Astronomical Twilight 3:21 AM MST 9:27 PM MST
Moon 4:50 PM MST (6/20) 2:33 AM MST (6/20)
Length of Visible Light 15h 30m
Length of Day
14h 30m
Waxing Gibbous, 89% of the Moon is Illuminated
Jun 20
Waxing Gibbous
Jun 23
Full
Jun 29
Last Quarter
Jul 8
New
Jul 15
First Quarter

Hourly Weather History & Observations

Time (MST) Temp. Dew Point Humidity Pressure Visibility Wind Dir Wind Speed Gust Speed Precip Events Conditions
12:56 AM 57.9 °F 12.0 °F 16% 29.74 in 10.0 mi South 4.6 mph - N/A   Clear
1:56 AM 59.0 °F 12.0 °F 16% 29.74 in 10.0 mi East 4.6 mph - N/A   Clear
2:56 AM 57.9 °F 14.0 °F 18% 29.75 in 10.0 mi South 9.2 mph - N/A   Clear
3:56 AM 57.0 °F 15.1 °F 19% 29.76 in 10.0 mi SE 8.1 mph - N/A   Clear
4:56 AM 54.0 °F 15.1 °F 22% 29.79 in 10.0 mi SE 8.1 mph - N/A   Clear
5:56 AM 55.9 °F 15.1 °F 20% 29.80 in 10.0 mi SE 9.2 mph - N/A   Clear
6:56 AM 62.1 °F 12.9 °F 15% 29.81 in 10.0 mi ESE 8.1 mph - N/A   Clear
7:56 AM 70.0 °F 17.1 °F 13% 29.81 in 10.0 mi ESE 8.1 mph - N/A   Clear
8:56 AM 80.1 °F 18.0 °F 10% 29.78 in 10.0 mi East 8.1 mph - N/A   Clear
9:56 AM 84.9 °F 12.9 °F 7% 29.76 in 10.0 mi Variable 6.9 mph 21.9 mph N/A   Clear
10:56 AM 88.0 °F 12.0 °F 6% 29.77 in 10.0 mi South 18.4 mph 25.3 mph N/A   Clear
11:56 AM 91.0 °F 10.9 °F 5% 29.75 in 10.0 mi WSW 17.3 mph 26.5 mph N/A   Clear
12:56 PM 93.9 °F 8.1 °F 4% 29.74 in 10.0 mi WSW 19.6 mph 27.6 mph N/A   Clear
1:56 PM 93.9 °F 9.0 °F 4% 29.72 in 10.0 mi SSW 16.1 mph 28.8 mph N/A   Clear
2:56 PM 93.0 °F 14.0 °F 5% 29.71 in 10.0 mi SSW 13.8 mph 31.1 mph N/A   Clear
3:56 PM 93.9 °F 12.0 °F 5% 29.70 in 10.0 mi SW 15.0 mph 28.8 mph N/A   Clear
4:56 PM 91.9 °F 8.1 °F 4% 29.72 in 10.0 mi SW 23.0 mph 31.1 mph N/A   Clear
5:56 PM 89.1 °F 10.0 °F 5% 29.73 in 10.0 mi SW 19.6 mph 26.5 mph N/A   Clear
6:56 PM 84.9 °F 12.9 °F 7% 29.73 in 10.0 mi SSW 17.3 mph 25.3 mph N/A   Clear
7:56 PM 79.0 °F 14.0 °F 9% 29.75 in 10.0 mi SSW 11.5 mph - N/A   Clear
8:56 PM 75.0 °F 17.1 °F 11% 29.76 in 10.0 mi SSW 10.4 mph - N/A   Clear
9:56 PM 72.0 °F 18.0 °F 13% 29.77 in 10.0 mi SSW 10.4 mph - N/A   Clear
10:56 PM 69.1 °F 17.1 °F 14% 29.77 in 10.0 mi South 10.4 mph - N/A   Clear
11:56 PM 64.9 °F 17.1 °F 16% 29.77 in 10.0 mi SSE 9.2 mph - N/A   Clear